Tampa Macdill AFB, FL

11:53 AM EDT on October 19, 2019 (GMT -0400)
MacDill Air Force Base

Weather History for KMCF - August, 2019

Change the Weather History Date:

Friday, August 16, 2019

  Actual Average Record
Temperature  
Mean Temperature 77 °F -  
Max Temperature 82 °F 88 °F 95 °F (1998)
Min Temperature 73 °F 73 °F 72 °F (2015)
Cooling Degree Days 12    
Growing Degree Days 27 (Base 50)    
Moisture  
Dew Point 74 °F    
Average Humidity 88    
Maximum Humidity 94    
Minimum Humidity 80    
Precipitation  
Precipitation 1.33 in - - ()
Sea Level Pressure  
Sea Level Pressure 30.05 in    
Wind  
Wind Speed 10 mph (SSW)    
Max Wind Speed 21 mph    
Max Gust Speed 28 mph    
Visibility 9 miles    
Events Rain    
Averages and records for this station are not official NWS values.
T = Trace of Precipitation, MM = Missing Value Source: NWS Daily Summary

Daily Weather History Graph

Daily Weather History Graph

Search for Another Location

Airport or City:

Astronomy

Aug. 16, 2019 Rise Set
Actual Time 7:00 AM EDT 8:07 PM EDT
Civil Twilight 6:36 AM EDT 8:32 PM EDT
Nautical Twilight 6:07 AM EDT 9:01 PM EDT
Astronomical Twilight 5:37 AM EDT 9:30 PM EDT
Moon 9:09 PM EDT (8/16) 7:51 AM EDT (8/16)
Length of Visible Light 13h 55m
Length of Day
13h 06m
Full, 99% of the Moon is Illuminated
Aug 16
Full
Aug 23
Last Quarter
Aug 30
New
Sep 5
First Quarter
Sep 14
Full

Hourly Weather History & Observations

Time (EDT) Temp. Heat Index Dew Point Humidity Pressure Visibility Wind Dir Wind Speed Gust Speed Precip Events Conditions
12:46 AM 78.8 °F - 75.2 °F 89% 30.03 in 10.0 mi South 8.1 mph - N/A   Light Drizzle
12:55 AM 78.8 °F - 77.0 °F 94% 30.03 in 10.0 mi South 5.8 mph - N/A   Mostly Cloudy
12:56 AM 79.5 °F - 76.3 °F 90% 30.03 in 10.0 mi South 5.8 mph - 0.00 in   Mostly Cloudy
1:56 AM 79.2 °F - 76.3 °F 91% 30.02 in 10.0 mi SSE 10.4 mph - N/A   Scattered Clouds
2:06 AM 78.8 °F - 75.2 °F 89% 30.02 in 10.0 mi SSE 13.8 mph - N/A   Mostly Cloudy
2:07 AM 78.8 °F - 75.2 °F 89% 30.02 in 10.0 mi South 13.8 mph - N/A   Mostly Cloudy
2:12 AM 78.8 °F - 75.2 °F 89% 30.02 in 10.0 mi SSE 16.1 mph - N/A   Mostly Cloudy
2:17 AM 78.8 °F - 73.4 °F 83% 30.02 in 10.0 mi SSE 20.7 mph 27.6 mph N/A   Mostly Cloudy
2:23 AM 78.8 °F - 73.4 °F 83% 30.01 in 10.0 mi South 20.7 mph 27.6 mph N/A   Light Drizzle
2:33 AM 77.0 °F - 73.4 °F 89% 30.00 in 10.0 mi South 15.0 mph - N/A Rain Light Rain
2:56 AM 78.3 °F - 72.0 °F 81% 30.00 in 10.0 mi SSE 9.2 mph - 0.00 in Rain Light Rain
3:56 AM 76.8 °F - 73.2 °F 89% 30.02 in 10.0 mi South 18.4 mph 23.0 mph 0.06 in Rain Rain
4:09 AM 77.0 °F - 73.4 °F 89% 30.01 in 10.0 mi South 12.7 mph - N/A   Mostly Cloudy
4:12 AM 77.0 °F - 73.4 °F 89% 30.01 in 10.0 mi SSE 13.8 mph - N/A Rain Light Rain
4:13 AM 77.0 °F - 75.2 °F 94% 30.01 in 10.0 mi SSE 15.0 mph - N/A Rain Light Rain
4:56 AM 77.4 °F - 73.8 °F 89% 30.01 in 8.0 mi South 9.2 mph - 0.17 in Rain Rain
5:56 AM 77.7 °F - 73.2 °F 86% 30.01 in 10.0 mi South 10.4 mph - 0.15 in Rain Light Rain
6:56 AM 78.6 °F - 73.6 °F 84% 30.01 in 10.0 mi SSW 5.8 mph - 0.01 in   Light Drizzle
6:57 AM 78.8 °F - 73.4 °F 83% 30.01 in 10.0 mi SSW 4.6 mph - N/A   Clear
7:40 AM 80.6 °F 86.2 °F 75.2 °F 84% 30.03 in 10.0 mi SW 6.9 mph - N/A   Light Drizzle
7:56 AM 79.0 °F - 74.7 °F 87% 30.04 in 10.0 mi WSW 8.1 mph - 0.01 in Rain Light Rain
8:56 AM 78.1 °F - 74.8 °F 90% 30.07 in 10.0 mi WSW 5.8 mph - 0.03 in Rain Light Rain
9:24 AM 77.0 °F - 73.4 °F 89% 30.08 in 5.0 mi WSW 6.9 mph - N/A Rain Rain
9:56 AM 76.5 °F - 73.6 °F 91% 30.07 in 10.0 mi Calm Calm - 0.16 in Rain Light Rain
10:23 AM 78.8 °F - 75.2 °F 89% 30.06 in 10.0 mi WSW 3.5 mph - N/A   Mostly Cloudy
10:56 AM 79.0 °F - 74.7 °F 87% 30.07 in 10.0 mi SW 4.6 mph - 0.01 in   Scattered Clouds
11:56 AM 81.9 °F 88.5 °F 75.0 °F 80% 30.08 in 10.0 mi SSW 8.1 mph - N/A   Scattered Clouds
12:56 PM 81.3 °F 88.0 °F 75.9 °F 84% 30.08 in 10.0 mi SSE 11.5 mph - N/A   Mostly Cloudy
1:16 PM 80.6 °F 86.2 °F 75.2 °F 84% 30.07 in 10.0 mi SSE 15.0 mph - N/A   Mostly Cloudy
1:17 PM 80.6 °F 86.2 °F 75.2 °F 84% 30.07 in 10.0 mi SSE 13.8 mph - N/A Rain Light Rain
1:27 PM 80.6 °F 86.2 °F 75.2 °F 84% 30.07 in 10.0 mi SSE 11.5 mph - N/A Rain Light Rain
1:29 PM 78.8 °F - 73.4 °F 83% 30.07 in 10.0 mi South 10.4 mph - N/A   Overcast
1:37 PM 78.8 °F - 73.4 °F 83% 30.09 in 10.0 mi South 13.8 mph - N/A Rain Light Rain
1:40 PM 78.8 °F - 73.4 °F 83% 30.08 in 10.0 mi SSW 17.3 mph - N/A Rain Light Rain
1:43 PM 78.8 °F - 73.4 °F 83% 30.10 in 10.0 mi WSW 15.0 mph - N/A Rain Heavy Rain
1:44 PM 78.8 °F - 73.4 °F 83% 30.10 in 9.0 mi West 13.8 mph 20.7 mph N/A Rain Heavy Rain
1:49 PM 75.2 °F - 71.6 °F 89% 30.11 in 4.0 mi WSW 16.1 mph 21.9 mph N/A Rain Heavy Rain
1:54 PM 75.2 °F - 71.6 °F 89% 30.11 in 0.5 mi SW 11.5 mph 21.9 mph N/A Rain Heavy Rain
1:56 PM 74.7 °F - 71.4 °F 90% 30.11 in 0.8 mi SW 16.1 mph 21.9 mph 0.41 in Rain Heavy Rain
2:01 PM 75.2 °F - 71.6 °F 89% 30.10 in 1.1 mi WSW 8.1 mph 18.4 mph N/A Rain Heavy Rain
2:06 PM 73.4 °F - 71.6 °F 94% 30.10 in 1.4 mi WSW 6.9 mph - N/A Rain Heavy Rain
2:11 PM 75.2 °F - 71.6 °F 89% 30.09 in 1.5 mi SW 3.5 mph - N/A Rain Light Rain
2:16 PM 75.2 °F - 71.6 °F 89% 30.09 in 2.8 mi SW 3.5 mph - N/A Rain Light Rain
2:21 PM 75.2 °F - 71.6 °F 89% 30.09 in 4.0 mi SSW 3.5 mph - N/A Rain Light Rain
2:39 PM 75.2 °F - 73.4 °F 94% 30.08 in 6.0 mi SE 4.6 mph - N/A   Haze
2:40 PM 75.2 °F - 73.4 °F 94% 30.08 in 6.0 mi SE 4.6 mph - N/A Rain Light Rain
2:56 PM 76.6 °F - 73.0 °F 89% 30.08 in 10.0 mi SSE 4.6 mph - 0.19 in Rain Light Rain
3:43 PM 78.8 °F - 75.2 °F 89% 30.07 in 10.0 mi SSE 5.8 mph - N/A Rain Light Rain
3:53 PM 78.8 °F - 75.2 °F 89% 30.06 in 10.0 mi SSE 8.1 mph - N/A   Light Drizzle
3:56 PM 78.1 °F - 75.2 °F 91% 30.06 in 10.0 mi SSE 8.1 mph - 0.00 in Rain Light Rain
4:01 PM 78.8 °F - 75.2 °F 89% 30.06 in 10.0 mi SSE 8.1 mph - N/A Rain Light Rain
4:06 PM 77.0 °F - 75.2 °F 94% 30.06 in 10.0 mi SSE 8.1 mph - N/A Rain Light Rain
4:16 PM 77.0 °F - 75.2 °F 94% 30.06 in 10.0 mi South 8.1 mph - N/A Rain Light Rain
4:21 PM 77.0 °F - 75.2 °F 94% 30.05 in 10.0 mi SSE 10.4 mph - N/A Rain Light Rain
4:56 PM 78.3 °F - 75.0 °F 90% 30.04 in 10.0 mi South 10.4 mph - 0.03 in Rain Light Rain
5:56 PM 77.0 °F - 72.9 °F 87% 30.04 in 10.0 mi SSW 16.1 mph 21.9 mph 0.07 in Rain Light Rain
6:03 PM 77.0 °F - 73.4 °F 89% 30.04 in 10.0 mi SSW 13.8 mph 21.9 mph N/A   Mostly Cloudy
6:56 PM 78.1 °F - 74.1 °F 88% 30.03 in 10.0 mi SSW 13.8 mph - 0.00 in   Partly Cloudy
7:21 PM 78.8 °F - 75.2 °F 89% 30.02 in 10.0 mi SSW 17.3 mph 25.3 mph N/A Rain Light Rain
7:31 PM 77.0 °F - 73.4 °F 89% 30.03 in 10.0 mi WSW 16.1 mph 26.5 mph N/A Rain Light Rain
7:49 PM 77.0 °F - 73.4 °F 89% 30.03 in 10.0 mi SW 11.5 mph 19.6 mph N/A   Partly Cloudy
7:51 PM 77.0 °F - 73.4 °F 89% 30.03 in 10.0 mi SW 9.2 mph 19.6 mph N/A Rain Light Rain
7:56 PM 76.8 °F - 72.9 °F 88% 30.03 in 10.0 mi WSW 12.7 mph 19.6 mph 0.03 in Rain Light Rain
8:11 PM 77.0 °F - 73.4 °F 89% 30.03 in 10.0 mi WSW 10.4 mph - N/A   Scattered Clouds
8:56 PM 77.2 °F - 72.7 °F 86% 30.04 in 10.0 mi SW 6.9 mph - 0.00 in   Clear
9:56 PM 79.0 °F - 73.9 °F 84% 30.05 in 10.0 mi SW 4.6 mph - N/A   Scattered Clouds
10:11 PM 78.8 °F - 73.4 °F 83% 30.05 in 10.0 mi SSW 5.8 mph - N/A   Mostly Cloudy
10:21 PM 78.8 °F - 73.4 °F 83% 30.06 in 10.0 mi SW 6.9 mph - N/A   Mostly Cloudy
10:26 PM 78.8 °F - 73.4 °F 83% 30.06 in 10.0 mi SSW 5.8 mph - N/A   Mostly Cloudy
10:31 PM 78.8 °F - 73.4 °F 83% 30.06 in 10.0 mi SSW 6.9 mph - N/A   Mostly Cloudy
10:56 PM 79.7 °F - 74.3 °F 83% 30.07 in 10.0 mi SSW 6.9 mph - N/A   Scattered Clouds
11:56 PM 79.0 °F - 74.7 °F 87% 30.08 in 10.0 mi SSE 6.9 mph - N/A   Mostly Cloudy